Temp
19 22 21 20 20 20 21 20 20 20 20 21 19 20 21 19 19 19 18 19 19 19 18 17 19 19 19 19 19 20 20 20 18 17 16 17 17 17 17 17 17 16 16 16
21 21 20 19 20 20 20 20 20 20 19 19 20 21 20 19 18 18 19 19 19 19 19 17 17 18 18 19 19 18 16 16 16 15 15 15 15 16 16 16 16 16 15 15
20 21 20 20 19 20 20 20 20 20 19 19 19 21 20 20 19 19 18 18 18 18 19 18 17 15 15 15 15 15 15 15 15 14 14 15 15 14 14 14 14 15 14 14
20 20 20 19 20 19 20 19 19 18 19 21 18 22 20 18 19 19 18 19 19 19 18 17 16 15 13 14 15 15 14 14 14 14 14 13 12 12 12 11 11 12 13 13
20 20 19 20 20 19 20 17 18 18 18 19 20 21 21 19 19 19 19 18 17 17 16 16 15 13 12 14 13 14 14 14 14 13 13 11 10 10 10 10 10 10 11 12
18 18 19 19 19 19 18 18 17 17 18 19 18 19 19 19 17 18 18 16 14 14 14 14 13 13 13 14 14 14 14 14 12 12 11 11 11 10 10 10 10 10 10 10
18 19 18 18 20 19 19 18 19 20 19 20 17 18 18 17 17 17 16 14 14 13 13 14 14 14 13 13 13 12 13 11 11 12 13 12 11 10 9 9 9 9 8 8
17 19 18 18 19 18 18 17 17 18 17 18 16 18 18 16 16 15 15 14 14 14 13 14 13 13 13 12 12 11 11 12 13 12 11 11 10 9 8 8 8 7 6 6
16 18 17 17 17 18 18 17 16 15 13 15 17 17 17 15 15 15 15 15 14 14 14 14 14 13 12 12 11 12 12 12 11 11 10 10 9 9 7 7 7 6 5 5
16 16 17 17 17 17 18 17 17 15 16 16 18 16 18 16 16 15 14 14 14 14 15 15 14 13 12 12 11 11 11 10 10 9 9 8 7 6 6 6 5 4 4 3
15 15 17 16 17 16 17 16 15 15 14 15 14 17 16 16 16 16 14 13 13 14 14 14 13 12 11 11 11 10 9 9 8 7 7 7 6 5 5 4 4 3 2 3
14 13 15 17 15 15 16 15 15 15 15 13 14 15 16 15 15 14 13 13 13 13 13 13 12 11 11 11 11 10 9 9 8 8 7 6 6 5 5 3 3 2 2 2
15 14 14 16 16 16 16 15 14 12 12 14 13 16 15 15 14 13 14 14 14 13 13 13 12 12 11 11 10 9 8 7 6 6 5 5 4 4 2 2 1 1 1 1
14 13 14 15 16 15 14 14 13 14 13 14 14 16 17 17 15 13 14 14 13 13 12 12 12 11 11 10 9 7 7 6 6 5 5 4 3 2 2 1 1 1 1 1
14 14 13 13 14 13 13 13 13 13 14 13 15 15 16 16 14 14 14 13 12 13 11 11 11 10 9 8 7 6 5 5 5 4 4 3 2 2 2 1 1 1 1 1
12 13 11 11 11 11 11 13 13 13 13 13 13 14 15 13 13 12 13 12 12 10 10 10 9 8 7 6 5 4 4 4 4 4 3 3 2 2 2 1 2 1 1 1
12 11 10 12 10 10 12 13 12 13 12 14 14 16 13 12 12 13 12 11 9 9 9 8 8 6 5 4 3 3 3 3 3 3 3 3 2 2 2 1 1 1 0 -1
8 8 8 11 9 13 15 14 14 14 14 14 13 13 13 13 13 12 11 9 8 8 8 7 6 5 4 3 3 2 3 3 3 3 2 2 1 1 1 1 0 -1 -1 -2
9 8 9 10 11 12 14 15 14 13 14 14 12 12 13 13 11 13 8 8 8 8 7 6 5 4 3 3 3 3 3 3 3 2 2 1 0 0 -0 -0 -1 -2 -2 -2
8 7 10 9 11 12 13 13 13 13 13 12 13 12 12 12 9 11 7 6 7 8 6 5 4 3 3 3 2 3 3 2 1 1 1 1 0 -1 -1 -2 -2 -3 -3 -3
7 8 10 10 10 11 12 12 12 12 13 12 11 11 11 10 9 6 5 7 7 6 5 4 3 3 3 2 2 3 3 2 1 1 1 -0 -1 -2 -2 -3 -3 -3 -3 -4
11 9 8 8 9 10 11 12 12 13 12 12 11 11 9 6 5 5 7 7 7 6 5 4 3 3 2 2 2 2 2 2 1 1 -0 -1 -2 -3 -3 -3 -3 -4 -4 -5
11 12 12 11 11 11 11 12 12 11 10 9 9 5 4 3 6 7 7 7 7 6 5 3 2 2 2 2 2 2 2 1 1 -0 -1 -2 -3 -3 -4 -4 -4 -4 -4 -5
10 10 10 11 13 13 12 13 10 8 6 5 5 4 5 6 6 6 7 7 6 5 4 3 2 2 2 2 2 1 1 0 -1 -1 -2 -2 -3 -3 -4 -4 -4 -5 -5 -5
12 10 10 10 12 12 11 9 7 5 4 5 6 6 6 6 6 6 6 6 5 4 3 3 2 2 2 2 1 0 0 -1 -1 -2 -3 -3 -4 -4 -4 -5 -5 -5 -6 -6
10 10 10 11 12 11 8 6 5 4 5 6 6 6 6 6 6 5 5 4 3 3 3 2 2 2 1 1 0 -0 -1 -2 -2 -3 -3 -4 -4 -5 -5 -5 -5 -6 -6 -7
Height
813 819 832 831 830 831 834 838 840 835 832 830 834 831 824 823 819 818 816 815 814 814 817 816 815 816 818 819 822 825 827 830 832 832 833 832 832 832 831 831 830 829 827 826
820 833 828 828 830 830 832 837 837 834 834 832 830 829 829 825 826 825 821 819 819 817 817 817 816 817 819 822 824 827 830 831 833 833 833 833 832 829 828 826 825 824 823 821
830 830 827 828 834 834 836 835 839 840 835 835 833 830 831 829 826 827 827 826 825 824 823 824 826 827 827 827 828 830 832 832 833 832 832 831 829 827 825 824 822 821 819 817
830 828 831 834 836 837 840 835 837 839 839 834 839 835 835 839 833 832 831 828 827 827 828 830 830 830 831 831 831 832 832 833 833 832 832 832 831 830 827 823 821 817 813 810
836 834 836 836 836 835 836 837 838 837 839 839 837 835 837 837 839 838 833 833 833 832 833 833 835 835 835 835 835 835 834 834 833 832 831 830 829 827 825 822 816 812 807 802
837 832 834 834 832 833 834 837 840 843 843 843 846 843 846 844 848 841 837 841 841 839 837 838 838 837 838 837 836 834 833 832 832 831 829 827 822 821 819 815 810 806 802 798
842 839 835 834 835 833 834 840 844 842 844 844 848 847 848 851 846 844 845 846 845 844 842 841 841 839 839 837 836 834 833 830 826 825 822 822 823 821 820 816 812 806 801 796
855 849 841 838 840 844 844 847 855 860 859 854 854 849 846 849 847 847 847 847 847 846 846 844 843 841 839 838 836 834 830 825 824 825 824 824 824 822 818 814 809 803 797 791
860 852 842 842 842 842 844 852 854 865 878 867 852 850 847 849 848 846 846 845 846 846 845 842 840 839 838 836 834 832 830 829 827 826 824 823 821 819 814 809 804 798 792 789
858 859 849 845 843 844 843 851 854 861 868 867 847 851 838 846 845 847 847 847 846 845 843 840 839 838 837 836 835 834 832 829 827 824 821 820 817 814 808 801 796 792 789 790
856 860 854 851 853 855 852 855 862 864 872 871 877 846 839 841 844 844 848 849 847 845 844 843 842 840 838 836 833 829 826 824 822 820 818 815 810 805 800 796 791 789 789 790
859 865 864 856 856 854 855 859 862 865 870 875 874 855 837 840 843 842 847 846 843 842 841 839 838 836 833 831 829 826 824 820 817 814 812 809 806 802 798 794 791 790 791 790
857 867 869 859 860 856 857 859 865 871 878 869 873 848 836 840 841 843 840 838 838 838 837 836 834 831 829 826 825 823 820 816 813 811 808 805 802 799 796 796 792 790 789 789
857 868 866 867 859 862 864 862 864 862 871 861 853 840 830 831 836 839 838 837 837 836 835 834 832 830 829 828 825 822 819 816 812 808 805 802 800 798 795 794 793 790 788 787
859 866 868 865 860 864 861 859 859 860 855 860 840 841 831 832 837 836 836 836 835 832 833 834 832 829 828 827 825 821 818 814 810 806 803 800 798 796 793 792 792 790 788 785
865 868 874 873 867 866 862 851 851 853 851 852 846 840 829 832 834 835 833 832 832 834 834 833 832 828 827 825 822 818 815 811 808 805 801 799 796 794 793 791 788 787 785 783
866 870 877 867 876 871 856 842 843 842 843 838 839 824 832 833 833 831 829 830 834 834 832 831 828 828 826 822 818 814 811 808 804 803 800 798 795 794 792 789 787 785 783 781
880 882 885 872 878 863 831 835 834 836 829 830 830 829 829 829 828 830 831 833 832 830 829 828 827 826 823 820 817 813 810 807 804 801 800 799 797 795 792 789 786 784 782 779
871 880 880 874 871 856 833 826 830 834 827 826 829 828 827 827 829 822 834 833 831 829 829 829 827 824 821 818 815 809 807 805 804 801 800 796 795 794 791 788 785 783 780 777
877 880 872 880 870 856 834 830 831 832 830 829 828 829 827 825 829 821 832 830 826 825 826 825 823 822 819 815 812 806 803 802 802 800 799 794 793 792 790 787 784 781 778 776
882 879 872 867 867 849 833 832 833 841 831 828 829 828 825 825 827 832 832 824 826 823 822 821 820 819 817 814 808 804 802 800 799 798 796 793 791 789 788 785 782 779 776 774
860 869 878 881 870 857 833 833 836 827 828 827 826 824 825 833 833 830 827 827 822 818 818 818 815 814 812 810 806 802 799 798 797 795 793 791 789 787 785 782 780 777 775 772
858 848 850 856 843 831 832 830 826 827 828 829 829 834 835 836 833 829 827 824 820 816 814 812 811 810 808 806 803 800 797 794 793 792 791 789 787 785 783 780 778 775 773 770
848 846 848 845 827 826 825 823 828 830 832 833 835 835 836 833 829 827 824 820 815 812 810 808 806 804 802 799 799 798 793 791 790 789 788 786 785 783 780 778 776 773 771 768
840 843 840 835 826 822 823 829 831 836 834 835 835 833 832 827 823 820 817 815 814 810 806 803 801 798 796 794 794 793 790 788 787 786 785 784 782 780 778 776 774 771 769 767
837 834 837 825 820 823 828 833 835 836 836 835 833 830 826 824 821 819 815 813 810 806 803 799 796 793 790 790 789 788 787 785 784 784 783 781 779 777 776 773 771 769 767 764
Wind_Speed
5 7 4 2 1 3 3 2 2 3 1 5 3 4 10 9 10 11 10 9 6 3 4 5 7 9 9 12 15 16 16 15 13 12 11 11 11 13 14 15 19 20 23 26
5 4 1 5 4 2 1 2 2 2 1 1 5 7 4 10 6 7 11 11 9 5 6 7 6 1 5 6 9 9 6 7 8 10 11 11 17 20 24 24 25 25 24 25
5 0 2 2 4 4 1 2 2 3 6 1 2 3 6 5 6 9 9 5 7 6 5 7 13 13 12 11 8 6 7 8 9 10 11 12 12 13 14 19 25 27 28 29
5 3 3 3 3 1 2 2 4 4 1 1 3 3 6 5 8 10 9 9 8 9 9 11 14 15 14 14 12 11 14 16 16 16 15 16 12 14 15 18 20 26 26 25
0 2 4 4 2 1 3 2 1 0 2 2 3 1 3 4 9 10 10 12 12 12 10 9 11 13 16 20 20 18 15 15 18 20 19 15 12 12 15 19 23 25 27 28
2 2 2 2 2 1 4 2 3 2 2 1 1 1 2 3 4 6 7 12 12 13 11 13 13 15 15 16 17 16 17 16 18 19 17 18 21 23 24 30 30 31 30 29
5 3 4 3 4 2 8 4 1 0 2 1 1 1 5 9 5 6 8 10 11 10 11 10 12 11 13 15 17 16 17 13 21 24 27 25 22 23 22 26 28 29 27 23
3 1 3 5 2 2 3 2 2 2 1 3 0 4 6 8 6 7 8 6 8 9 6 5 6 8 10 12 16 15 18 25 26 23 22 19 19 22 25 26 30 28 25 20
2 2 3 3 2 1 1 4 1 4 1 2 2 1 3 5 7 6 7 8 6 5 6 8 11 12 12 16 18 22 22 19 17 18 17 16 19 25 24 26 27 26 23 11
1 2 2 3 1 5 2 4 1 3 1 2 5 3 3 9 4 2 4 4 5 5 8 12 17 18 17 13 18 17 16 15 16 17 14 15 20 20 23 26 24 20 11 2
1 1 2 0 4 2 2 2 5 3 1 1 3 5 4 7 2 5 2 1 2 4 8 10 14 15 15 11 14 14 15 14 14 15 13 19 21 22 23 20 17 11 1 3
1 2 2 1 1 0 2 2 3 2 2 1 1 7 3 8 1 2 4 3 5 6 9 10 11 10 11 14 17 18 20 18 18 19 18 21 21 20 16 9 6 4 5 8
2 2 3 2 3 2 3 1 3 4 2 6 3 6 1 6 2 2 6 8 10 10 11 9 12 14 15 18 20 21 22 19 18 16 18 16 13 11 7 5 5 6 5 9
4 2 4 4 4 1 5 4 4 4 3 4 12 17 19 18 10 5 6 9 9 10 7 8 10 14 16 18 19 21 21 19 18 18 16 11 8 4 5 4 6 7 7 8
2 2 3 5 10 4 8 12 11 13 13 8 16 16 19 12 8 4 10 10 11 11 8 10 10 14 16 19 22 24 24 22 17 15 12 8 5 6 6 5 6 7 8 9
2 1 1 4 5 4 8 14 14 13 14 13 18 22 17 6 3 7 10 10 10 6 7 9 11 14 17 21 22 22 20 17 15 16 13 9 9 9 11 11 9 11 13 12
1 3 2 4 4 8 7 4 4 3 6 5 7 10 4 6 5 10 11 7 3 5 8 9 9 14 16 17 17 17 17 13 14 12 9 8 10 8 10 10 11 11 10 9
4 4 2 3 4 2 2 2 6 6 15 9 11 10 8 7 8 12 7 1 3 6 7 7 10 14 17 19 18 16 14 15 9 11 10 11 12 11 10 11 12 12 10 11
2 4 2 2 3 7 10 4 1 5 9 3 3 1 6 9 9 12 2 4 7 5 9 9 13 15 17 17 16 14 12 13 8 9 8 12 11 11 12 12 12 11 12 13
4 4 1 2 3 5 4 2 1 3 8 2 1 9 8 14 12 11 3 4 13 10 8 12 14 14 15 17 16 13 13 11 7 9 11 13 10 11 11 12 12 11 11 12
0 1 5 7 6 8 7 4 1 1 5 4 3 8 11 12 4 3 6 13 8 8 8 9 10 13 14 14 11 10 10 7 4 9 12 10 11 11 10 10 10 11 12 12
4 4 4 2 4 7 4 1 3 3 5 11 10 9 5 6 6 6 10 12 14 11 10 13 11 12 11 8 7 10 11 8 9 11 9 9 10 10 9 9 11 12 11 13
4 6 3 9 7 3 2 5 6 6 8 4 3 10 9 7 7 10 11 14 18 15 13 12 12 13 11 11 11 14 14 10 11 9 8 8 8 8 9 10 11 12 12 13
3 3 4 2 7 8 10 12 5 7 10 11 9 6 6 9 9 12 13 15 15 16 14 13 12 14 14 12 13 16 12 9 7 7 7 7 8 10 10 9 10 11 13 15
6 3 4 8 14 14 7 5 7 9 9 7 1 1 7 9 11 12 13 17 17 17 16 14 14 15 15 14 14 14 12 10 7 6 6 7 8 9 8 8 10 12 10 12
5 6 4 6 11 11 3 6 6 7 3 2 4 9 11 11 12 15 16 17 17 20 21 18 15 15 15 14 13 13 12 9 6 6 5 6 8 7 8 10 12 10 10 12
Wind_Direction
17 70 72 37 106 140 137 148 246 261 187 335 359 334 7 10 48 48 46 45 54 82 345 313 292 253 227 217 213 221 229 239 250 264 280 290 301 310 314 318 313 307 302 294
48 68 102 101 61 93 120 206 272 269 268 305 6 35 7 31 35 31 39 43 43 54 40 16 24 131 214 228 228 244 262 280 299 305 304 312 310 311 310 317 320 318 315 309
102 80 75 81 40 36 15 107 2 289 331 102 350 79 30 26 32 46 40 43 40 34 36 31 27 29 24 22 8 356 353 0 9 5 357 347 338 330 328 325 321 319 316 313
74 17 84 72 74 66 339 103 302 276 254 213 344 154 46 359 39 33 20 22 11 7 11 19 25 31 31 34 43 52 64 65 43 25 14 3 348 332 327 324 321 322 324 321
63 57 57 53 332 113 259 343 280 186 158 160 16 124 47 38 47 26 19 20 5 356 6 27 41 58 59 60 59 57 45 27 13 8 5 1 353 340 330 328 325 323 323 321
48 320 48 301 317 48 313 52 56 77 128 164 68 340 52 39 37 16 19 27 20 16 37 52 68 69 55 41 34 25 14 6 3 0 358 357 356 348 341 339 336 330 325 318
348 353 324 23 357 21 21 34 335 299 15 198 131 11 100 90 34 20 16 41 36 38 47 53 53 43 29 21 14 7 0 2 359 354 350 346 342 340 334 330 326 320 313 309
32 307 8 356 51 307 14 47 116 246 306 312 340 169 152 109 51 65 67 60 56 52 56 58 32 10 8 9 6 358 358 358 352 348 343 337 334 332 329 325 318 309 306 307
16 282 336 47 349 341 63 52 105 104 103 281 326 168 120 198 66 67 45 41 30 12 3 351 344 349 353 2 0 357 349 341 337 333 330 325 325 326 321 317 314 310 312 298
77 319 5 314 299 51 50 123 28 32 18 293 300 257 221 206 3 36 58 37 5 357 346 338 335 337 335 334 351 334 328 321 319 319 309 312 324 323 323 323 320 318 315 210
94 129 282 280 27 303 7 50 63 103 66 183 302 274 194 174 153 7 151 218 324 327 319 314 324 332 332 321 322 324 324 317 315 323 320 324 328 332 335 337 337 341 28 170
1 130 298 110 117 52 116 117 94 113 198 188 235 270 200 174 176 75 195 262 287 300 323 331 339 338 333 329 332 343 343 332 331 326 324 327 329 336 342 349 21 54 21 38
181 29 348 44 70 19 63 94 109 97 89 226 210 264 205 215 306 356 350 333 324 320 327 343 344 338 335 336 340 339 336 333 329 324 321 323 331 348 9 36 64 65 36 359
89 126 168 224 250 202 264 218 192 177 230 242 241 272 279 287 305 324 316 306 299 301 315 324 331 330 330 343 342 337 337 337 328 322 323 321 331 6 3 340 347 337 330 328
91 222 203 266 274 276 268 260 235 229 238 242 274 279 275 287 300 306 314 301 299 311 329 325 322 342 343 341 337 332 328 327 327 327 322 315 286 311 346 335 325 311 303 306
17 234 116 278 300 291 282 267 252 236 248 253 261 267 281 275 196 283 283 288 296 321 309 315 336 348 344 337 333 331 329 332 336 329 318 321 336 328 334 323 308 311 310 312
143 136 106 268 337 318 287 238 178 197 196 220 266 287 180 208 256 300 295 291 290 298 317 334 344 337 332 332 330 329 331 338 339 344 343 344 343 342 338 337 337 336 335 328
132 105 167 283 339 238 251 266 236 254 276 258 266 279 265 243 286 300 302 177 289 298 312 322 329 329 341 338 333 330 331 330 328 352 355 347 342 345 354 350 339 335 333 332
128 123 177 246 224 308 299 287 180 182 280 251 236 255 303 303 310 311 184 303 299 299 307 331 340 339 333 330 329 329 321 342 323 352 357 354 348 342 340 339 338 337 331 329
63 63 147 156 248 268 249 281 83 152 295 101 100 320 325 333 300 303 11 16 271 313 336 330 330 323 324 328 322 326 315 320 315 350 325 334 332 336 336 335 335 331 329 324
45 241 239 246 259 270 259 273 13 36 312 179 250 290 287 284 310 41 292 279 312 301 300 312 315 312 315 318 331 335 339 336 307 320 318 333 334 334 332 334 336 332 326 323
209 174 213 179 236 279 190 84 212 291 323 307 282 290 286 46 15 321 309 310 306 301 311 318 311 307 306 302 329 326 325 323 310 313 322 334 336 336 333 332 333 333 329 323
266 195 199 192 226 245 232 248 269 307 295 326 347 66 66 27 305 323 309 313 315 305 299 301 287 286 284 298 298 308 306 307 307 310 323 333 338 337 330 322 328 331 332 329
267 184 222 259 247 266 287 290 23 65 88 77 71 78 23 333 310 308 308 303 300 295 297 297 284 281 287 293 302 298 302 304 298 309 322 333 333 330 324 321 325 328 331 334
225 128 236 259 281 287 277 61 110 91 81 79 108 329 279 292 295 296 297 308 307 302 300 299 282 282 287 295 297 296 293 288 288 302 312 327 330 331 328 328 326 328 330 337
171 212 212 261 275 300 359 107 94 104 142 208 278 288 292 296 303 313 309 312 309 311 310 302 286 281 287 293 294 296 283 283 277 292 305 322 329 333 334 335 335 341 344 343